This demonstration page uses our WeatherBlox Daily Observations layout. Learn more.

Left ArrowRight Arrow

34.74481, -87.66753

Hourly Observations for March 21, 2018

Temp ( °F °C ) Dew Point ( °F °C ) Humidity (%) Winds ( mph kmh ) Pressure ( in mb ) Visibility ( mi km ) Precip ( " mm )
12:53 am 00:53 Clear 37 2.8 32 0 82 82 WNW 7 11 29.92 1013 10 16 0.00 0.00
1:53 am 01:53 Clear 36 2.2 32 0 86 86 WNW 8 13 29.92 1013 8 13 0.00 0.00
2:53 am 02:53 Clear 35 1.7 31 -0.6 85 85 WNW 7 11 29.92 1013 8 13 0.00 0.00
3:53 am 03:53 Clear 36 2.2 30 -1.1 79 79 WNW 9 15 29.92 1013 10 16 0.00 0.00
4:53 am 04:53 Clear 35 1.7 30 -1.1 82 82 WNW 7 11 29.94 1014 9 14 0.00 0.00
5:53 am 05:53 Mostly Clear 35 1.7 30 -1.1 82 82 WNW 6 9 29.96 1014 9 14 0.00 0.00
6:53 am 06:53 Sunny 35 1.7 30 -1.1 82 82 WNW 8 13 29.99 1016 9 14 0.00 0.00
7:53 am 07:53 Cloudy 37 2.8 29 -1.7 73 73 NW 10 17 30.01 1016 10 16 0.00 0.00
8:53 am 08:53 Cloudy 39 3.9 28 -2.2 65 65 NW 10 17 30.04 1017 10 16 0.00 0.00
9:53 am 09:53 Cloudy 42 5.6 27 -2.8 55 55 NW 15 24 30.06 1018 10 16 0.00 0.00
10:53 am 10:53 Cloudy 44 6.7 27 -2.8 51 51 WNW 17 28 30.07 1018 10 16 0.00 0.00
11:53 am 11:53 Mostly Sunny 47 8.3 29 -1.7 50 50 NW 16 26 30.08 1019 10 16 0.00 0.00
12:53 pm 12:53 Mostly Sunny 49 9.4 29 -1.7 46 46 NW 14 22 30.08 1019 10 16 0.00 0.00
1:53 pm 13:53 Mostly Cloudy 50 10 30 -1.1 46 46 NNW 13 20 30.09 1019 10 16 0.00 0.00
2:53 pm 14:53 Mostly Sunny 52 11.1 31 -0.6 45 45 WNW 20 31 30.09 1019 10 16 0.00 0.00
3:53 pm 15:53 Mostly Sunny 52 11.1 30 -1.1 43 43 NNW 18 30 30.11 1020 10 16 0.00 0.00
4:53 pm 16:53 Mostly Sunny 53 11.7 30 -1.1 41 41 NW 18 30 30.13 1020 10 16 0.00 0.00
5:53 pm 17:53 Sunny 51 10.6 30 -1.1 44 44 WNW 16 26 30.14 1021 10 16 0.00 0.00
6:53 pm 18:53 Sunny 48 8.9 30 -1.1 50 50 WNW 14 22 30.18 1022 10 16 0.00 0.00
7:53 pm 19:53 Clear 46 7.8 30 -1.1 54 54 WNW 9 15 30.21 1023 10 16 0.00 0.00
8:53 pm 20:53 Clear 45 7.2 31 -0.6 58 58 NW 8 13 30.22 1024 10 16 0.00 0.00
9:53 pm 21:53 Clear 44 6.7 31 -0.6 60 60 NW 7 11 30.24 1024 10 16 0.00 0.00
10:53 pm 22:53 Clear 42 5.6 31 -0.6 65 65 NW 5 7 30.25 1025 10 16 0.00 0.00
11:53 pm 23:53 Clear 43 6.1 31 -0.6 63 63 NW 7 11 30.26 1025 10 16 0.00 0.00

Powered by AerisWeather